Texarkana, AR

9:03 AM CDT on August 25, 2016 (GMT -0500)
Texarkana Regional-Webb

Weather History for KTXK - April, 2014

Change the Weather History Date:

Friday, April 18, 2014

  Actual Average Record
Temperature  
Mean Temperature 62 °F 64 °F  
Max Temperature 74 °F 76 °F 94 °F (2006)
Min Temperature 50 °F 53 °F 36 °F (1921)
Degree Days  
Heating Degree Days 3 3  
Month to date heating degree days 131 84  
Since 1 July heating degree days 2993 2578  
Cooling Degree Days 0 3  
Month to date cooling degree days 29 35  
Year to date cooling degree days 36 58  
Growing Degree Days 12 (Base 50)    
Moisture  
Dew Point 49 °F    
Average Humidity 67    
Maximum Humidity 93    
Minimum Humidity 41    
Precipitation  
Precipitation 0.02 in 0.13 in 2.67 in (2016)
Month to date precipitation 2.26 2.22  
Year to date precipitation 9.49 13.81  
Snow  
Snow 0.00 in - - ()
Month to date snowfall 0.0  
Since 1 July snowfall 1.7  
Snow Depth 0.00 in    
Sea Level Pressure  
Sea Level Pressure 30.18 in    
Wind  
Wind Speed 3 mph (ENE)    
Max Wind Speed 12 mph    
Max Gust Speed 15 mph    
Visibility 10 miles    
Events Rain , Thunderstorm    
T = Trace of Precipitation, MM = Missing Value Source: NWS Daily Summary

Daily Weather History Graph

Daily Weather History Graph

Search for Another Location

Airport or City:

Trip Planner

Search our weather history database for the weather conditions in past years. The results will help you decide how hot, cold, wet, or windy it might be!

Date:

Astronomy

Apr. 18, 2014 Rise Set
Actual Time 6:41 AM CDT 7:49 PM CDT
Civil Twilight 6:16 AM CDT 8:14 PM CDT
Nautical Twilight 5:45 AM CDT 8:45 PM CDT
Astronomical Twilight 5:14 AM CDT 9:17 PM CDT
Moon 11:28 PM CDT (4/18) 9:11 AM CDT (4/18)
Length of Visible Light 13h 58m
Length of Day
13h 07m
Waning Gibbous, 87% of the Moon is Illuminated
Apr 18
Waning Gibbous
Apr 22
Last Quarter
Apr 29
New
May 6
First Quarter
May 14
Full

Hourly Weather History & Observations

Time (CDT) Temp. Dew Point Humidity Pressure Visibility Wind Dir Wind Speed Gust Speed Precip Events Conditions
12:53 AM 55.0 °F 48.9 °F 80% 30.19 in 10.0 mi Calm Calm - N/A   Overcast
1:14 AM 55.4 °F 46.4 °F 72% 30.18 in 10.0 mi Calm Calm - N/A Thunderstorm Overcast
1:53 AM 54.0 °F 50.0 °F 86% 30.19 in 10.0 mi Calm Calm - 0.02 in Rain , Thunderstorm Light Rain
2:06 AM 53.6 °F 51.8 °F 94% 30.19 in 10.0 mi Calm Calm - 0.00 in   Overcast
2:53 AM 53.1 °F 51.1 °F 93% 30.19 in 10.0 mi Calm Calm - 0.00 in   Overcast
3:53 AM 54.0 °F 50.0 °F 86% 30.19 in 10.0 mi NNE 3.5 mph - N/A   Overcast
4:53 AM 53.1 °F 48.9 °F 86% 30.19 in 10.0 mi Calm Calm - N/A   Partly Cloudy
5:53 AM 52.0 °F 48.9 °F 89% 30.19 in 10.0 mi Calm Calm - N/A   Mostly Cloudy
6:53 AM 50.0 °F 48.0 °F 93% 30.21 in 7.0 mi Calm Calm - N/A   Scattered Clouds
7:53 AM 53.1 °F 50.0 °F 89% 30.23 in 9.0 mi ENE 3.5 mph - N/A   Mostly Cloudy
8:53 AM 57.9 °F 51.1 °F 78% 30.24 in 9.0 mi NE 4.6 mph - N/A   Clear
9:53 AM 63.0 °F 51.1 °F 65% 30.24 in 10.0 mi North 5.8 mph - N/A   Clear
10:53 AM 66.9 °F 51.1 °F 57% 30.24 in 10.0 mi North 5.8 mph - N/A   Clear
11:53 AM 66.9 °F 51.1 °F 57% 30.22 in 10.0 mi ENE 9.2 mph - N/A   Clear
12:53 PM 69.1 °F 50.0 °F 51% 30.20 in 10.0 mi NE 3.5 mph - N/A   Scattered Clouds
1:53 PM 70.0 °F 48.9 °F 47% 30.19 in 10.0 mi NNE 3.5 mph - N/A   Scattered Clouds
2:53 PM 70.0 °F 48.0 °F 46% 30.17 in 10.0 mi ESE 4.6 mph - N/A   Scattered Clouds
3:53 PM 70.0 °F 46.9 °F 44% 30.15 in 10.0 mi ESE 5.8 mph - N/A   Overcast
4:53 PM 73.0 °F 48.0 °F 41% 30.12 in 10.0 mi Variable 4.6 mph - N/A   Partly Cloudy
5:53 PM 72.0 °F 46.9 °F 41% 30.12 in 10.0 mi Variable 4.6 mph - N/A   Clear
6:53 PM 70.0 °F 46.9 °F 44% 30.12 in 10.0 mi East 4.6 mph - N/A   Clear
7:53 PM 64.9 °F 48.9 °F 56% 30.14 in 10.0 mi Calm Calm - N/A   Clear
8:53 PM 63.0 °F 48.0 °F 58% 30.16 in 10.0 mi SE 4.6 mph - N/A   Clear
9:53 PM 62.1 °F 48.9 °F 62% 30.18 in 10.0 mi SE 4.6 mph - N/A   Clear
10:53 PM 61.0 °F 48.9 °F 64% 30.17 in 10.0 mi SE 3.5 mph - N/A   Clear
11:53 PM 54.0 °F 48.9 °F 83% 30.17 in 7.0 mi Calm Calm - N/A   Clear